When you browse on this site, cookies collect data to enhance your experience and personalize the content and advertising you see.
Visit our Privacy Policy to learn more. By continuing to use the site, you agree to this use of cookies and data.
  • In Austria
  • List of Countries
  • For 7 days
  • Water Temperature
  • Weather Map
  • News
  • Weather Widgets
  • user-avatar
    Login

    Hourly Weather Pasca

    Today, 17 November, Sunday

    Time Temperature Precipitation Wind Pressure Humidity
    00:00 +13°C° 0 mm 1 mps 583 mmHg 88%
    01:00 +13°C° 0 mm 1 mps 582 mmHg 89%
    02:00 +13°C° 0 mm 1 mps 582 mmHg 88%
    03:00 +13°C° 0 mm 1 mps 582 mmHg 88%
    04:00 +13°C° 0 mm 1 mps 582 mmHg 87%
    05:00 +12°C° 0 mm 0 mps 583 mmHg 86%
    06:00 +13°C° 0 mm 0 mps 583 mmHg 84%
    07:00 +14°C° 0 mm 0 mps 584 mmHg 83%
    08:00 +18°C° 0 mm 1 mps 585 mmHg 78%
    09:00 +19°C° 0 mm 1 mps 586 mmHg 74%
    10:00 +20°C° 0 mm 2 mps 586 mmHg 70%
    11:00 +20°C° 0.2 mm 2 mps 586 mmHg 72%
    12:00 +20°C° 0.2 mm 2 mps 585 mmHg 75%
    13:00 +21°C° 0.2 mm 2 mps 584 mmHg 77%
    14:00 +20°C° 0.5 mm 2 mps 584 mmHg 81%
    15:00 +20°C° 0.5 mm 1 mps 583 mmHg 85%
    16:00 +19°C° 0.5 mm 1 mps 582 mmHg 89%
    17:00 +18°C° 0.6 mm 1 mps 583 mmHg 91%
    18:00 +16°C° 0.6 mm 1 mps 583 mmHg 92%
    19:00 +15°C° 0.6 mm 1 mps 583 mmHg 93%
    20:00 +15°C° 0.1 mm 1 mps 583 mmHg 92%
    21:00 +14°C° 0.1 mm 1 mps 583 mmHg 90%
    22:00 +13°C° 0.1 mm 1 mps 583 mmHg 89%
    23:00 +13°C° 0.1 mm 1 mps 583 mmHg 89%

    Tomorrow, 18 November, Monday

    Time Temperature Precipitation Wind Pressure Humidity
    00:00 +13°C° 0.1 mm 1 mps 582 mmHg 89%
    01:00 +13°C° 0.1 mm 1 mps 582 mmHg 89%
    02:00 +13°C° 0 mm 1 mps 582 mmHg 89%
    03:00 +13°C° 0 mm 1 mps 582 mmHg 89%
    04:00 +13°C° 0 mm 1 mps 582 mmHg 89%
    05:00 +14°C° 0 mm 1 mps 583 mmHg 87%
    06:00 +13°C° 0 mm 0 mps 584 mmHg 84%
    07:00 +14°C° 0 mm 0 mps 585 mmHg 82%
    08:00 +18°C° 0 mm 1 mps 585 mmHg 78%
    09:00 +19°C° 0 mm 1 mps 586 mmHg 75%
    10:00 +20°C° 0 mm 2 mps 587 mmHg 72%
    11:00 +20°C° 0.3 mm 2 mps 586 mmHg 76%
    12:00 +20°C° 0.3 mm 2 mps 585 mmHg 79%
    13:00 +19°C° 0.3 mm 2 mps 584 mmHg 83%
    14:00 +20°C° 0.6 mm 1 mps 584 mmHg 86%
    15:00 +19°C° 0.6 mm 1 mps 583 mmHg 88%
    16:00 +19°C° 0.6 mm 1 mps 583 mmHg 91%
    17:00 +18°C° 0.5 mm 1 mps 583 mmHg 91%
    18:00 +16°C° 0.5 mm 0 mps 583 mmHg 92%
    19:00 +15°C° 0.5 mm 0 mps 584 mmHg 92%
    20:00 +15°C° 0.4 mm 1 mps 584 mmHg 92%
    21:00 +15°C° 0.4 mm 1 mps 584 mmHg 91%
    22:00 +15°C° 0.4 mm 1 mps 584 mmHg 91%
    23:00 +14°C° 0.6 mm 1 mps 584 mmHg 90%

    Day after tomorrow, 19 November, Tuesday

    Time Temperature Precipitation Wind Pressure Humidity
    00:00 +14°C° 0.6 mm 1 mps 584 mmHg 90%
    01:00 +14°C° 0.6 mm 1 mps 583 mmHg 89%
    02:00 +13°C° 0.2 mm 0 mps 583 mmHg 90%
    03:00 +13°C° 0.2 mm 0 mps 583 mmHg 90%
    04:00 +13°C° 0.2 mm 0 mps 583 mmHg 90%
    05:00 +13°C° 0.1 mm 0 mps 584 mmHg 89%
    06:00 +14°C° 0.1 mm 0 mps 584 mmHg 88%
    07:00 +14°C° 0.1 mm 0 mps 585 mmHg 88%
    08:00 +15°C° 0.2 mm 0 mps 586 mmHg 86%
    09:00 +18°C° 0.2 mm 1 mps 586 mmHg 84%
    10:00 +19°C° 0.2 mm 1 mps 587 mmHg 82%
    11:00 +19°C° 0.6 mm 1 mps 586 mmHg 85%
    12:00 +19°C° 0.6 mm 1 mps 585 mmHg 88%
    13:00 +19°C° 0.6 mm 1 mps 584 mmHg 90%
    14:00 +19°C° 0.7 mm 1 mps 584 mmHg 90%
    15:00 +18°C° 0.7 mm 1 mps 584 mmHg 90%
    16:00 +18°C° 0.7 mm 1 mps 584 mmHg 90%
    17:00 +18°C° 0.9 mm 1 mps 584 mmHg 91%
    18:00 +16°C° 0.9 mm 1 mps 584 mmHg 92%
    19:00 +15°C° 0.9 mm 1 mps 584 mmHg 93%
    20:00 +15°C° 0.5 mm 1 mps 584 mmHg 93%
    21:00 +14°C° 0.5 mm 1 mps 584 mmHg 93%
    22:00 +14°C° 0.5 mm 1 mps 584 mmHg 92%
    23:00 +14°C° 0.2 mm 1 mps 584 mmHg 92%

    20 November, Wednesday

    Time Temperature Precipitation Wind Pressure Humidity
    00:00 +14°C° 0.2 mm 1 mps 584 mmHg 91%
    01:00 +13°C° 0.2 mm 1 mps 583 mmHg 91%
    02:00 +13°C° 0.1 mm 1 mps 583 mmHg 90%
    03:00 +12°C° 0.1 mm 0 mps 583 mmHg 90%
    04:00 +12°C° 0.1 mm 0 mps 583 mmHg 90%
    05:00 +13°C° 0 mm 0 mps 584 mmHg 88%
    06:00 +13°C° 0 mm 0 mps 585 mmHg 87%
    07:00 +14°C° 0 mm 0 mps 586 mmHg 86%
    08:00 +15°C° 0.4 mm 0 mps 586 mmHg 85%
    09:00 +18°C° 0.4 mm 1 mps 586 mmHg 84%
    10:00 +19°C° 0.4 mm 1 mps 587 mmHg 83%
    11:00 +19°C° 0.9 mm 1 mps 586 mmHg 84%
    12:00 +20°C° 0.9 mm 1 mps 586 mmHg 85%
    13:00 +20°C° 0.9 mm 1 mps 585 mmHg 86%
    14:00 +20°C° 0.7 mm 1 mps 585 mmHg 87%
    15:00 +19°C° 0.7 mm 1 mps 584 mmHg 87%
    16:00 +19°C° 0.7 mm 1 mps 584 mmHg 88%
    17:00 +18°C° 0.7 mm 1 mps 584 mmHg 90%
    18:00 +16°C° 0.7 mm 1 mps 584 mmHg 91%
    19:00 +16°C° 0.7 mm 1 mps 584 mmHg 92%
    20:00 +15°C° 0.9 mm 1 mps 584 mmHg 92%
    21:00 +15°C° 0.9 mm 1 mps 585 mmHg 93%
    22:00 +14°C° 0.9 mm 1 mps 585 mmHg 93%
    23:00 +14°C° 1 mm 1 mps 584 mmHg 92%

    21 November, Thursday

    Time Temperature Precipitation Wind Pressure Humidity
    00:00 +13°C° 1 mm 0 mps 584 mmHg 92%
    01:00 +13°C° 1 mm 0 mps 584 mmHg 91%
    02:00 +13°C° 0.5 mm 0 mps 584 mmHg 92%
    03:00 +13°C° 0.5 mm 0 mps 584 mmHg 92%
    04:00 +12°C° 0.5 mm 0 mps 583 mmHg 93%
    05:00 +13°C° 0.1 mm 0 mps 584 mmHg 92%
    06:00 +13°C° 0.1 mm 0 mps 585 mmHg 92%
    07:00 +14°C° 0.1 mm 0 mps 585 mmHg 91%
    08:00 +15°C° 0.3 mm 0 mps 586 mmHg 89%
    09:00 +18°C° 0.3 mm 1 mps 586 mmHg 87%
    10:00 +19°C° 0.3 mm 1 mps 587 mmHg 84%
    11:00 +19°C° 0.7 mm 1 mps 586 mmHg 87%
    12:00 +19°C° 0.7 mm 1 mps 585 mmHg 89%
    13:00 +19°C° 0.7 mm 1 mps 584 mmHg 92%
    14:00 +19°C° 0.6 mm 1 mps 584 mmHg 92%
    15:00 +18°C° 0.6 mm 1 mps 584 mmHg 92%
    16:00 +18°C° 0.6 mm 1 mps 583 mmHg 91%
    17:00 +18°C° 0.5 mm 1 mps 583 mmHg 92%
    18:00 +15°C° 0.5 mm 0 mps 583 mmHg 93%
    19:00 +14°C° 0.5 mm 0 mps 584 mmHg 93%
    20:00 +14°C° 0.3 mm 0 mps 584 mmHg 92%
    21:00 +14°C° 0.3 mm 0 mps 584 mmHg 91%
    22:00 +13°C° 0.3 mm 0 mps 585 mmHg 90%
    23:00 +13°C° 0.5 mm 0 mps 584 mmHg 91%

    22 November, Friday

    Time Temperature Precipitation Wind Pressure Humidity
    00:00 +13°C° 0.5 mm 0 mps 584 mmHg 92%
    01:00 +13°C° 0.5 mm 0 mps 584 mmHg 93%
    02:00 +13°C° 0.5 mm 0 mps 583 mmHg 93%
    03:00 +13°C° 0.5 mm 0 mps 583 mmHg 94%
    04:00 +13°C° 0.5 mm 0 mps 583 mmHg 95%
    05:00 +13°C° 0.5 mm 0 mps 584 mmHg 94%
    06:00 +13°C° 0.5 mm 0 mps 584 mmHg 93%
    07:00 +14°C° 0.5 mm 0 mps 585 mmHg 92%
    08:00 +14°C° 0.4 mm 0 mps 585 mmHg 91%
    09:00 +16°C° 0.4 mm 1 mps 586 mmHg 90%
    10:00 +18°C° 0.4 mm 1 mps 586 mmHg 88%
    11:00 +18°C° 0.8 mm 1 mps 586 mmHg 89%
    12:00 +18°C° 0.8 mm 1 mps 585 mmHg 89%
    13:00 +18°C° 0.8 mm 1 mps 584 mmHg 89%
    14:00 +18°C° 1.3 mm 1 mps 584 mmHg 89%
    15:00 +18°C° 1.3 mm 1 mps 583 mmHg 89%
    16:00 +18°C° 1.3 mm 1 mps 583 mmHg 88%
    17:00 +16°C° 1 mm 1 mps 583 mmHg 89%
    18:00 +15°C° 1 mm 1 mps 583 mmHg 90%
    19:00 +15°C° 1 mm 1 mps 583 mmHg 91%
    20:00 +14°C° 0.6 mm 1 mps 583 mmHg 91%
    21:00 +14°C° 0.6 mm 1 mps 584 mmHg 90%
    22:00 +14°C° 0.6 mm 1 mps 584 mmHg 90%
    23:00 +14°C° 0.7 mm 1 mps 584 mmHg 90%
    Show more